Regional Weather Roundup
Issued by NWS

Home | Current Version | Previous Version | Text Only | Print | Product List | Glossary Off
Versions: 1 2 3 4 5 6 7 8 9 10 11 12 13 14 15 16 17 18 19 20 21 22 23 24 25 26 27 28 29 30 31 32 33 34 35 36 37 38 39 40 41 42 43 44 45 46 47 48 49 50

000
ASUS43 KDMX 261904
RWRIA

WEATHER ROUNDUP FOR IOWA
NATIONAL WEATHER SERVICE DES MOINES IA
  ISSUED BY NWS QUAD CITIES IA IL
100 PM CST THU FEB 26 2015

NOTE: "FAIR" INDICATES FEW OR NO CLOUDS BELOW 12,000 FEET WITH NO
SIGNIFICANT WEATHER AND/OR OBSTRUCTIONS TO VISIBILITY.

* - THESE STATIONS ARE NOT NWS STATIONS...THUS NOT UNDER NWS
QUALITY CONTROL.  THEY ALSO DO NOT REPORT WEATHER SUCH
AS PRECIPITATION OR FOG.

IAZ001>003-012>014-020>022-031>034-043>046-262000-
   NORTHWEST IOWA

CITY           SKY/WX    TMP DP  RH WIND       PRES   REMARKS
CARROLL *      PTSUNNY    5  -6  61 N15G22    30.47F WCI -13
CHEROKEE *     CLEAR      4  -6  63 N12G22    30.49F WCI -12
DENNISON *     MOSUNNY    3  -8  60 N16G22    30.47F WCI -16
LE MARS *      MOSUNNY    5  -2  72 N13G18    30.52F WCI -12
ORANGE CITY *  MOSUNNY    5  -4  66 NW15G21   30.48F HAZE    WCI -13
SHELDON *      PTSUNNY    3  -8  60 NW18      30.47F WCI -17
SIOUX CITY     PTSUNNY    8  -3  61 NW18      30.53F WCI -11
SPENCER        CLOUDY     5  -6  60 NW16      30.46F WCI -14
STORM LAKE *   PTSUNNY    3  -6  66 NW16      30.46S WCI -16
$$

IAZ055>058-069>071-079>083-090>094-262000-
   SOUTHWEST IOWA

CITY           SKY/WX    TMP DP  RH WIND       PRES   REMARKS
ATLANTIC *     MOSUNNY    7  -4  61 N15       30.48F WCI -11
AUDUBON *      SUNNY      5  -4  66 NW12G20   30.46F WCI -11
CLARINDA *     MOSUNNY   10   0  61 NW18G24   30.50F WCI  -8
COUNCIL BLFS * MOSUNNY    9   0  66 N16G24    30.47F WCI  -9
CRESTON *      MOSUNNY    9  -2  61 NW18G28   30.43F WCI -10
HARLAN *       MOSUNNY    5  -4  66 N18       30.52F WCI -15
LAMONI         SUNNY     11  -3  53 N20       30.41F WCI  -7
RED OAK *      PTSUNNY    9   0  66 N15G21    30.50S WCI  -8
$$

IAZ047>049-059>061-072>074-084-262000-
   CENTRAL IOWA

CITY           SKY/WX    TMP DP  RH WIND       PRES   REMARKS
AMES           SUNNY      5  -5  63 N14       30.46S WCI -12
ANKENY *       SUNNY      7  -6  56 NW14      30.46F WCI -10
BOONE *        SUNNY      5  -4  66 N18       30.42F WCI -15
CHARITON *     SUNNY     10  -4  52 NW17G24   30.41S WCI  -7
DES MOINES     MOSUNNY   10  -3  55 NW14      30.45S WCI  -6
GRINNELL *     CLEAR      6  -3  67 N16       30.41S WCI -12
KNOXVILLE *    SUNNY      9  -4  56 N16       30.42S WCI  -9
MARSHALLTOWN   SUNNY      5  -3  69 NW15      30.42S WCI -13
NEWTON *       SUNNY      7  -4  61 NW17      30.43S WCI -12
PELLA *        SUNNY      9   1  69 NW15      30.44S WCI  -8
PERRY *          N/A      6  -1  72 NW16      30.47F WCI -12
$$

IAZ004>006-015-016-023>025-035-036-262000-
   NORTH CENTRAL IOWA

CITY           SKY/WX    TMP DP  RH WIND       PRES   REMARKS
ALGONA *       PTSUNNY    3  -6  66 NW15      30.46F WCI -15
CLARION *      MOSUNNY    3  -4  72 NW15G23   30.44F WCI -15
ESTHERVILLE    PTSUNNY    2  -6  69 N17       30.45S WCI -18
FORT DODGE *   MOSUNNY    3  -6  66 NW8G18    30.47S WCI -10
MASON CITY     SUNNY      2  -6  69 NW15      30.43F WCI -17
FOREST CITY *  SNOW       3  -8  60 NW14      30.42F VSB 1/2 WCI -15
WEBSTER CITY * MOSUNNY    3  -4  72 NW15      30.43F WCI -15
IOWA FALLS *   FAIR       5  -4  66 NW14      30.43F WCI -13
$$

IAZ007>011-017>019-026>030-037>042-050>054-066-262000-
   NORTHEAST IOWA

CITY           SKY/WX    TMP DP  RH WIND       PRES   REMARKS
CEDAR RAPIDS   SUNNY      7  -2  66 NW17      30.35F WCI -12
CHARLES CITY * SUNNY      3  -6  66 NW15      30.40F WCI -15
CLINTON *      MOSUNNY   12   1  62 N12       30.35F WCI  -2
DECORAH *      SUNNY      7  -8  51 NW14      30.35F WCI -10
DUBUQUE        SUNNY     10  -3  55 N15       30.30F WCI  -7
MONTICELLO *   MOSUNNY   10  -4  52 N14       30.35S WCI  -5
OELWEIN *      SUNNY      5  -4  66 N14       30.38F WCI -12
WATERLOO       SUNNY      6  -5  60 NW14      30.41S WCI -11
$$

IAZ064-065-067-068-078-262000-
   EAST CENTRAL IOWA

CITY           SKY/WX    TMP DP  RH WIND       PRES   REMARKS
DAVENPORT      SUNNY     11   0  61 N12       30.33F WCI  -3
IOWA CITY      SUNNY     11  -1  58 NW12      30.39S WCI  -3
MT. PLEASANT * SUNNY      9  -3  58 NW15      30.37S WCI  -7
MUSCATINE *    SUNNY     12   0  57 N14       30.38S WCI  -3
QUAD CITIES    SUNNY     14   2  58 NW10      30.33S WCI   1
$$

IAZ062-063-075>077-085>089-095>099-262000-
   SOUTHEAST IOWA

CITY           SKY/WX    TMP DP  RH WIND       PRES   REMARKS
BURLINGTON     SUNNY     11   0  61 NW15      30.33F WCI  -5
FAIRFIELD *    SUNNY      9  -2  61 NW17      30.38S WCI -10
FORT MADISON * SUNNY     10   1  67 NW13      30.35S WCI  -5
KEOKUK *       SUNNY     12   0  57 NW15G21   30.35S WCI  -4
OSKALOOSA *    FAIR       9  -1  64 NW20      30.41S WCI -10
CENTERVILLE *  FAIR      10   0  61 NW18      30.40S WCI  -8
OTTUMWA        SUNNY      9  -1  64 NW20      30.40S WCI -10
WASHINGTON *   SUNNY      9   1  72 NW16G22   30.38R WCI  -9
$$

ABBREVIATIONS USED IN REMARKS
   TC - TEMPERATURES IN CELSIUS
  WCI - WIND CHILL INDEX
   HX - HEAT INDEX
  VSB - VISIBILITY
$$


USA.gov is the U.S. government's official web portal to all federal, state and local government web resources and services.